Location: Les Agnels
(43.8540°N, 5.3857°E)
Time: 05:02:37
(UTC+00:00)

Daily predictions for brighter satellites

Satellite Brightness Start Highest point End
(mag) Time Altitude Azimuth Time Altitude Azimuth Time Altitude Azimuth
SJ 16-02 3.4 00:09:53 24° NE 00:09:53 24° NE 00:11:50 10° NNE
Cosmos 2263 Rocket 4.2 00:14:58 17° E 00:14:58 17° E 00:17:36 10° ENE
SL-16 R/B 2.6 00:08:56 10° NNW 00:13:48 59° NNE 00:13:48 59° NNE
Cosmos 2297 Rocket 2.9 00:28:55 45° NW 00:28:55 45° NW 00:33:55 10° NNE
Cosmos 2344 4.4 00:24:22 10° NW 00:34:12 70° WSW 00:38:10 49° S
USA 229 DEB 3.8 00:36:45 60° E 00:36:45 60° E 00:42:57 10° NE
USA 229 3.8 00:36:53 59° E 00:36:53 59° E 00:43:02 10° NE
Cosmos 1092 Rocket 4.4 00:31:22 10° NNW 00:36:34 51° WNW 00:36:34 51° WNW
Cosmos 2219 4.4 00:41:47 33° WNW 00:41:54 33° NW 00:46:56 10° N
Cosmos 1898 Rocket 4.2 00:43:57 50° NE 00:43:57 50° NE 00:47:59 10° NNE
Cosmos 2237 Rocket 4.0 00:39:01 10° NW 00:41:11 20° WNW 00:41:11 20° WNW
NOSS 3-1 (A) 3.9 00:48:36 46° E 00:48:36 46° E 00:53:40 10° NE
Meteor 1-24 Rocket 3.9 00:44:22 10° N 00:49:06 62° NE 00:49:06 62° NE
Cosmos 1680 Rocket 4.2 00:47:43 10° NNW 00:51:28 48° NNW 00:51:28 48° NNW
Cosmos 1461 4.4 00:55:29 36° N 00:55:29 36° N 00:58:39 10° NNE
CZ-2D R/B 2.4 01:02:39 10° NNE 01:08:00 61° E 01:08:00 61° E
Timation 1 Rocket 4.2 01:10:12 80° ESE 01:10:12 80° ESE 01:16:07 10° NNE
SL-16 R/B 2.6 01:09:25 64° SE 01:10:21 77° ENE 01:16:37 10° NNW
Cosmos 1943 4.0 01:08:18 10° NNW 01:13:44 47° ENE 01:16:10 30° ESE
Cosmos 1626 4.5 01:14:04 10° NNW 01:15:17 19° NNW 01:15:17 19° NNW
Cosmos 1655 Rocket 3.8 01:11:50 10° N 01:18:07 85° W 01:18:27 80° SSW
Cosmos 2227 Rocket 3.7 01:18:31 23° WNW 01:19:25 24° NW 01:24:00 10° N
Cosmos 1544 Rocket 4.3 01:22:37 52° NE 01:22:37 52° NE 01:26:17 10° NNE
Cosmos 2292 Rocket 4.2 01:14:55 10° N 01:21:52 89° E 01:22:07 83° SSE
Cosmos 1470 4.1 01:24:19 39° NNE 01:24:19 39° NNE 01:26:56 10° N
Cosmos 1953 4.0 01:23:54 29° ENE 01:23:54 29° ENE 01:27:02 10° NNE
Meteor 1-22 Rocket 4.3 01:25:04 58° NW 01:25:04 58° NW 01:29:57 10° N
IRS-1D 4.4 01:20:15 10° NNE 01:25:04 40° E 01:25:39 38° ESE
Meteor 2-5 Rocket 4.4 01:20:49 10° NNW 01:25:04 40° WNW 01:25:04 40° WNW
NPP 3.6 01:21:31 10° NNE 01:26:55 74° ESE 01:27:04 74° ESE
Cosmos 2279 Rocket 4.4 01:29:43 47° W 01:29:54 47° WNW 01:35:53 10° N
AQUA 3.9 01:29:52 10° NNE 01:34:26 69° E 01:34:26 69° E
Atlas Centaur 2 4.3 01:38:02 16° SE 01:38:02 16° SE 01:40:14 10° ESE
Exosat Rocket 4.3 01:36:53 54° SSW 01:38:55 88° WNW 01:45:05 10° NNE
Resurs 1-4 Rocket 2.0 01:36:16 10° N 01:41:30 69° WNW 01:41:36 69° W
Cosmos 1602 Rocket 4.2 01:39:51 10° N 01:44:05 49° ENE 01:44:26 48° E
Cosmos 2227 4.1 01:44:00 71° SW 01:44:35 80° WNW 01:50:23 10° NNE
NOSS 2-3 (E) 4.0 01:44:49 59° NNW 01:44:49 59° NNW 01:49:32 10° NNE
Cosmos 2098 Rocket 3.9 01:39:54 10° NNW 01:45:37 68° W 01:46:33 60° SW
SJ 16-02 3.3 01:46:52 19° NW 01:46:52 19° NW 01:49:37 10° NNW
NOSS 3-1 (C) 4.0 01:48:09 36° WNW 01:49:34 42° NW 01:55:41 10° NNE
Cosmos 2263 Rocket 2.1 01:56:40 62° WSW 01:57:23 70° WNW 02:02:58 10° NNE
SL-16 R/B 4.2 01:54:21 10° WNW 01:55:38 14° WNW 01:55:38 14° WNW
Cosmos 2298 Rocket 4.1 01:57:57 59° SSE 01:58:51 73° ESE 02:04:11 10° NNE
Meteor 1-16 Rocket 4.5 02:01:58 40° SSE 02:03:46 62° E 02:09:17 10° NNE
Cosmos 372 Rocket 3.9 02:04:37 64° WSW 02:05:16 72° WNW 02:10:33 10° NNE
Meteor 1-28 Rocket 4.4 02:06:34 30° ESE 02:07:52 41° ENE 02:11:28 10° N
Cosmos 1937 Rocket 4.4 02:07:18 33° WNW 02:07:56 34° WNW 02:12:47 10° N
COBE Rocket 3.7 02:08:32 64° W 02:08:32 64° W 02:13:05 10° NNW
SL-08 R/B 4.0 02:05:26 20° SE 02:08:41 55° ENE 02:13:31 10° N
NOSS 2-3 (D) 4.3 02:08:30 40° WNW 02:09:03 42° NW 02:13:51 10° NNE
Cosmos 1809 Rocket 4.4 02:05:24 10° NNW 02:11:28 67° W 02:13:15 46° SSW
Cosmos 1455 Rocket 4.4 02:12:38 27° WNW 02:12:38 27° WNW 02:15:56 10° NNW
ADEOS II 2.0 02:07:53 10° NNE 02:13:10 89° WNW 02:14:31 52° SSW
Cosmos 2285 Rocket 4.0 02:11:00 43° S 02:13:15 80° ESE 02:19:34 10° NNE
Cosmos 1626 Rocket 3.7 02:09:16 10° NNW 02:13:03 54° WNW 02:13:03 54° WNW
Cosmos 1726 2.8 02:14:19 44° NNW 02:14:19 44° NNW 02:17:08 10° N
ATLAS CENTAUR R/B 1.2 02:13:46 86° ESE 02:13:46 86° ESE 02:17:42 10° NE
CZ-4B R/B 3.3 02:11:22 10° N 02:16:03 63° WNW 02:16:40 57° WSW
Cosmos 1553 Rocket 4.3 02:15:29 25° SSE 02:19:03 61° E 02:25:05 10° NNE
Cosmos 1844 Rocket 3.7 02:17:42 23° SSE 02:20:30 39° ESE 02:25:39 10° NE
GEOS 3 Rocket 4.3 02:21:16 10° NNE 02:26:26 46° NW 02:28:25 32° W
Meteor 2-10 4.5 02:27:12 42° WSW 02:28:34 52° WNW 02:34:09 10° N
Cosmos 2084 3.6 02:28:47 52° W 02:29:32 61° NW 02:33:57 10° NNE
CBERS-1 4.2 02:24:51 10° N 02:29:52 56° WNW 02:31:10 43° WSW
Meteor 1-21 Rocket 4.2 02:24:36 10° NNW 02:30:01 56° W 02:31:39 41° SSW
Cosmos 468 4.4 02:25:01 10° NNW 02:30:18 76° WSW 02:33:36 23° S
NOSS 8 (E) 4.3 02:32:47 71° N 02:32:47 71° N 02:35:34 10° NE
ARIANE 5 R/B 2.6 02:28:19 10° NNE 02:33:35 76° ESE 02:36:11 30° S
Cosmos 1244 Rocket 4.4 02:29:23 10° NNW 02:35:43 72° W 02:39:39 24° S
Cosmos 1758 Rocket 3.4 02:32:01 10° N 02:36:22 89° WSW 02:38:14 34° S
ERS-1 4.4 02:33:41 10° NNE 02:38:40 85° ESE 02:41:00 32° S
NOSS 3-1 (A) 4.5 02:36:02 22° W 02:38:52 34° NW 02:44:45 10° NNE
Cosmos 1603 4.4 02:34:05 10° NW 02:39:05 32° WSW 02:39:05 32° WSW
SL-08 R/B 4.5 02:34:24 10° N 02:40:41 89° E 02:46:47 11° S
Cosmos 2150 Rocket 4.3 02:42:28 36° WSW 02:44:09 50° WNW 02:49:17 10° N
Cosmos 2058 Rocket 4.3 02:41:30 12° SSE 02:45:17 39° E 02:49:25 10° NNE
Cosmos 494 Rocket 3.9 02:40:26 10° NNW 02:45:38 88° ENE 02:50:51 10° SSE
H-2A R/B 3.3 02:42:52 10° SE 02:46:42 40° ENE 02:50:34 10° N
CZ-2D R/B 3.7 02:43:39 10° NNW 02:47:41 21° WNW 02:49:19 19° W
S3M 4.2 02:45:36 16° S 02:50:51 78° E 02:57:15 10° N
Cosmos 1703 3.4 02:48:00 10° NNW 02:51:52 51° W 02:52:42 43° SW
CZ-2C R/B 4.4 02:50:14 10° NE 02:53:56 23° E 02:57:41 10° SSE
SL-16 R/B 4.0 02:54:31 18° W 02:54:35 18° W 02:58:41 10° NW
Cosmos 1825 Rocket 3.4 02:50:36 10° NNW 02:54:54 72° W 02:57:30 23° S
Landsat 5 4.5 02:51:48 10° SE 02:55:37 47° ENE 02:59:38 10° N
Cosmos 1125 Rocket 3.6 02:54:00 32° SW 02:56:22 60° WNW 03:01:36 10° NNE
Cosmos 1943 4.1 02:52:53 10° NW 02:57:29 27° WSW 02:57:52 26° WSW
OAO 3 Rocket 4.5 02:58:35 23° S 02:58:35 23° S 03:02:21 10° SE
USA 215 3.3 02:52:56 10° NE 02:59:30 78° SE 03:03:50 23° SW
Cosmos 1953 3.8 02:59:36 21° WNW 02:59:53 21° WNW 03:03:00 10° NNW
IRS-1C 4.5 02:56:02 10° N 03:01:10 49° WNW 03:03:50 26° SW
Cosmos 1328 4.2 03:01:53 10° NNW 03:05:41 42° W 03:07:02 31° SW
Cosmos 1953 Rocket 3.5 03:01:55 10° N 03:06:25 82° W 03:10:51 10° S
CZ-2D R/B 3.4 03:06:50 10° N 03:10:46 62° WNW 03:12:51 26° SSW
Cosmos 1709 Rocket 4.4 03:05:09 10° N 03:11:16 63° E 03:17:18 10° SSE
OAO 2 Rocket 4.4 03:10:53 23° SW 03:13:00 31° S 03:17:36 10° ESE
Resurs 1-4 Rocket 4.3 03:19:22 10° NW 03:20:21 10° NW 03:21:19 10° WNW
Cosmos 1606 Rocket 4.1 03:19:25 22° SW 03:21:49 42° WNW 03:26:04 10° N
Atlas Centaur 2 3.8 03:20:39 18° SW 03:24:00 26° S 03:30:06 10° SE
NOSS 2-2 (E) 3.2 03:22:45 24° SW 03:24:44 66° NW 03:28:41 10° NNE
NOSS 2-2 (D) 3.0 03:23:29 23° SW 03:25:37 84° NW 03:29:29 10° NE
IDEFIX/ARIANE 42P 2.8 03:24:49 10° N 03:29:51 52° WNW 03:34:08 14° SW
USA 267 3.8 03:24:46 10° ESE 03:31:13 64° NNE 03:37:41 10° NW
Meteor 2-15 Rocket 4.4 03:27:34 10° SSW 03:33:38 78° W 03:39:43 10° N
MSX 3.9 03:30:04 10° N 03:35:49 69° WNW 03:41:32 10° SSW
Cosmos 1726 Rocket 4.3 03:33:33 17° SW 03:36:32 37° WNW 03:40:42 10° N
PSLV R/B 3.8 03:32:11 10° NNE 03:36:34 72° ESE 03:40:52 10° S
COSMOS 2406 4.4 03:32:32 10° NNW 03:38:02 46° ENE 03:43:28 10° SE
Cosmos 2228 4.2 03:36:23 17° WSW 03:38:52 27° WNW 03:42:40 10° NNW
Cosmos 2315 Rocket 4.1 03:34:10 10° S 03:40:30 88° W 03:46:56 10° N
ADEOS Rocket 4.4 03:33:34 10° SE 03:41:03 56° ENE 03:48:32 10° N
Cosmos 2263 Rocket 4.2 03:39:38 10° WNW 03:42:23 14° NW 03:45:09 10° NNW
Cosmos 1844 3.9 03:37:25 14° SW 03:42:27 59° WNW 03:48:09 10° NNE
Cosmos 1455 3.4 03:45:04 10° SSE 03:48:44 44° E 03:52:26 10° NNE
CZ-2C R/B 3.5 03:45:54 10° N 03:49:22 34° WNW 03:52:32 11° SW
deb Chang Zheng 4 4.1 03:46:43 10° NNE 03:51:03 62° ESE 03:55:21 10° S
ADEOS II 4.0 03:49:34 10° NNW 03:52:05 14° WNW 03:54:36 10° W
Cosmos 1300 3.7 03:49:36 12° SW 03:52:32 29° WNW 03:55:56 10° NNW
ATLAS CENTAUR R/B 3.5 03:50:58 10° WNW 03:53:07 14° NW 03:55:13 10° N
ERS-2 2.6 03:51:51 10° S 03:55:17 39° W 03:58:45 10° NNW
TSX-5 4.3 03:54:03 10° S 03:57:03 43° ESE 04:00:10 10° NE
CZ-4C R/B 4.0 03:55:32 10° SSW 03:58:17 24° W 04:01:06 10° NW
Cosmos 1400 Rocket 3.7 03:56:07 10° S 03:59:52 51° E 04:03:39 10° NNE
Cosmos 2278 Rocket 2.9 03:57:51 10° S 04:03:22 56° ESE 04:08:54 10° NNE
Cosmos 1844 Rocket 3.6 03:59:27 10° WSW 04:04:27 33° NW 04:09:28 10° N
SAR-Lupe-4 3.5 04:01:40 10° SSE 04:05:14 88° WSW 04:08:51 10° NNW
Cosmos 1076 Rocket 3.6 04:02:58 10° N 04:07:21 86° ENE 04:11:43 10° S
Cosmos 2251 Rocket 3.8 04:03:09 10° NNW 04:08:34 78° ENE 04:13:56 10° SSE
Cosmos 1812 Rocket 3.6 04:04:27 10° S 04:08:46 88° E 04:13:09 10° N
NOSS 2-2 (C) 4.3 04:05:56 10° WSW 04:09:11 31° NW 04:12:46 10° NNE
Lacrosse 5 rocket 2.3 04:05:31 10° SSW 04:09:54 51° SE 04:14:24 10° NE
Cosmos 1833 Rocket 3.5 04:04:51 10° NNW 04:10:27 58° ENE 04:16:00 10° SE
ARIANE 5 R/B 4.3 04:08:52 10° NNW 04:12:03 16° WNW 04:15:13 10° W
NOSS 3-2 (A) 4.2 04:04:39 10° NW 04:12:17 89° SW 04:20:50 10° SSE
USA 281 3.4 04:06:05 10° NNE 04:12:42 84° ESE 04:19:15 10° SSW
SeaSat 1 2.5 04:10:33 10° NNE 04:15:30 81° WNW 04:20:26 10° SSW
